Location: Casone le Fosse
(44.6547°N, 12.1103°E)
Time: 02:51:14
(UTC+00:00)

NOAA 12 - Pass Details

Date: 29 October 2020
Orbit: 795 x 815 km, 98.5° (Epoch: 01 December)

Event Time Altitude Azimuth Distance (km) Brightness Sun altitude
Rises 16:39:22 0° 166° (SSE) 3,309 7.3 -6.9°
Reaches altitude 10° 16:41:41 10° 167° (SSE) 2,385 6.6 -7.3°
Maximum altitude 16:46:59 84° 255° (WSW) 822 4.3 -8.2°
Drops below altitude 10° 16:52:20 10° 345° (NNW) 2,412 6.6 -9.1°
Sets 16:54:42 0° 346° (NNW) 3,350 7.4 -9.5°
